K5IDL Weather Reports


time (UTC)temp
C
wind
direction
speed
KPH
gust
KPH
rain 1hr
cm
rain 24hr
cm
rain mn
cm
humidity
%
barometer
mb
20260502190759 25 275 0.0 1.6 0.00 0.00 0.00 34 1021.7
20260502190652 25 23 0.0 1.6 0.00 0.00 0.00 33 1022.4
20260502190256 25 290 0.0 1.6 0.00 0.00 0.00 33 1022.2
20260502185751 25 300 0.0 1.6 0.00 0.00 0.00 33 1022.1
20260502185658 25 341 1.6 3.2 0.00 0.00 0.00 32 1022.3
20260502185247 25 351 0.0 0.0 0.00 0.00 0.00 32 1021.9
20260502184744 25 272 3.2 4.8 0.00 0.00 0.00 33 1022.1
20260502184620 24 308 1.6 4.8 0.00 0.00 0.00 33 1022.6
20260502184239 24 304 1.6 4.8 0.00 0.00 0.00 32 1022.3
20260502183749 24 75 3.2 6.4 0.00 0.00 0.00 33 1022.6
20260502183736 23 98 0.0 1.6 0.00 0.00 0.00 34 1022.3
20260502183227 25 327 1.6 1.6 0.00 0.00 0.00 32 1022.3
20260502182722 24 87 1.6 3.2 0.00 0.00 0.00 32 1022.4
20260502182711 24 107 3.2 11.3 0.00 0.00 0.00 33 1022.7
20260502182218 24 117 6.4 11.3 0.00 0.00 0.00 33 1022.2
20260502181737 25 298 1.6 3.2 0.00 0.00 0.00 32 1022.7
20260502181715 25 292 0.0 1.6 0.00 0.00 0.00 34 1022.3
20260502181214 25 277 0.0 1.6 0.00 0.00 0.00 32 1022.5
20260502180710 25 318 1.6 1.6 0.00 0.00 0.00 33 1022.7
20260502180700 25 308 1.6 3.2 0.00 0.00 0.00 33 1022.9
20260502180208 25 263 0.0 1.6 0.00 0.00 0.00 34 1022.5
20260502170126 23 357 0.0 0.0 0.00 0.00 0.00 35 1023.4
20260502164113 23 63 0.0 1.6 0.00 0.00 0.00 34 1023.3
20260502163740 24 351 0.0 1.6 0.00 0.00 0.00 36 1023.5
20260502163609 24 24 0.0 1.6 0.00 0.00 0.00 34 1023.3
20260502163106 24 320 0.0 0.0 0.00 0.00 0.00 37 1023.2
20260502162721 25 351 0.0 1.6 0.00 0.00 0.00 34 1023.5
20260502162603 25 347 0.0 0.0 0.00 0.00 0.00 34 1023.3
20260502162100 23 336 1.6 1.6 0.00 0.00 0.00 35 1023.3
20260502161727 23 310 0.0 1.6 0.00 0.00 0.00 36 1023.5
20260502161556 23 298 0.0 1.6 0.00 0.00 0.00 34 1023.2
20260502161054 22 15 0.0 0.0 0.00 0.00 0.00 38 1023.4
20260502160649 24 342 1.6 3.2 0.00 0.00 0.00 34 1023.5
20260502160552 24 2 1.6 3.2 0.00 0.00 0.00 33 1023.1
20260502151959 24 332 0.0 1.6 0.00 0.00 0.00 38 1023.1
20260502151651 22 0.0 0.0 0.00 0.00 0.00 41 1023.3
20260502151455 22 5 0.0 0.0 0.00 0.00 0.00 39 1022.8
20260502150953 21 316 1.6 1.6 0.00 0.00 0.00 43 1023.0
20260502150715 22 353 0.0 1.6 0.00 0.00 0.00 39 1023.1
20260502150450 22 333 0.0 1.6 0.00 0.00 0.00 39 1022.5
20260502140126 21 0.0 0.0 0.00 0.00 0.00 44 1023.0
20260502130336 16 339 0.0 0.0 0.00 0.00 0.00 63 1022.0
20260502130151 16 0.0 0.0 0.00 0.00 0.00 63 1022.2
20260502123318 15 349 0.0 0.0 0.00 0.00 0.00 78 1021.6
20260502123205 13 0.0 0.0 0.00 0.00 0.00 84 1021.8
20260502122815 12 349 0.0 0.0 0.00 0.00 0.00 86 1021.6
20260502122311 11 347 0.0 0.0 0.00 0.00 0.00 92 1021.3
20260502122230 10 0.0 0.0 0.00 0.00 0.00 93 1021.6
20260502121809 10 347 0.0 0.0 0.00 0.00 0.00 93 1021.3
20260502121306 10 347 0.0 0.0 0.00 0.00 0.00 93 1021.5
20260502121152 10 0.0 0.0 0.00 0.00 0.00 93 1021.5
20260502120803 10 347 0.0 0.0 0.00 0.00 0.00 93 1021.1
20260502120300 10 347 0.0 0.0 0.00 0.00 0.00 93 1021.1
20260502120238 10 0.0 0.0 0.00 0.00 0.00 93 1021.3
20260502115758 10 347 0.0 0.0 0.00 0.00 0.00 93 1021.3
20260502115254 10 346 0.0 0.0 0.00 0.00 0.00 93 1021.1
20260502115200 10 0.0 0.0 0.00 0.00 0.00 93 1021.1
20260502114750 10 344 0.0 0.0 0.00 0.00 0.00 93 1020.8
20260502114247 10 344 0.0 0.0 0.00 0.00 0.00 93 1020.9
20260502114206 10 0.0 0.0 0.00 0.00 0.00 93 1021.0
20260502113745 10 344 0.0 0.0 0.00 0.00 0.00 93 1020.8
20260502113242 10 344 0.0 0.0 0.00 0.00 0.00 93 1020.8
20260502113231 10 0.0 0.0 0.00 0.00 0.00 92 1020.9
20260502112740 10 344 0.0 0.0 0.00 0.00 0.00 92 1020.5
20260502112237 10 345 0.0 0.0 0.00 0.00 0.00 92 1020.5
20260502112154 10 0.0 0.0 0.00 0.00 0.00 92 1020.8
20260502111734 10 349 0.0 0.0 0.00 0.00 0.00 92 1020.6
20260502111232 10 350 0.0 0.0 0.00 0.00 0.00 92 1020.5
20260502111219 10 0.0 0.0 0.00 0.00 0.00 91 1020.9
20260502110729 10 351 0.0 0.0 0.00 0.00 0.00 91 1020.6
20260502110227 11 351 0.0 0.0 0.00 0.00 0.00 91 1020.7
20260502110142 11 0.0 0.0 0.00 0.00 0.00 91 1020.9
20260502105725 11 348 0.0 0.0 0.00 0.00 0.00 91 1020.6
20260502105221 11 343 0.0 0.0 0.00 0.00 0.00 91 1020.4
20260502105208 11 0.0 0.0 0.00 0.00 0.00 91 1020.6
20260502104719 11 348 0.0 0.0 0.00 0.00 0.00 91 1020.2
20260502104216 11 348 0.0 0.0 0.00 0.00 0.00 91 1020.1
20260502104131 11 0.0 0.0 0.00 0.00 0.00 91 1020.2
20260502103714 11 348 0.0 0.0 0.00 0.00 0.00 91 1020.0
20260502103259 11 0.0 0.0 0.00 0.00 0.00 91 1020.1
20260502103211 11 348 0.0 0.0 0.00 0.00 0.00 91 1019.7
20260502102708 11 348 0.0 0.0 0.00 0.00 0.00 91 1019.7
20260502102222 11 0.0 0.0 0.00 0.00 0.00 90 1020.1
20260502102204 11 352 0.0 0.0 0.00 0.00 0.00 91 1019.6
20260502101703 11 352 0.0 0.0 0.00 0.00 0.00 90 1019.9
20260502101201 11 352 0.0 0.0 0.00 0.00 0.00 89 1019.8
20260502101144 11 0.0 0.0 0.00 0.00 0.00 89 1020.0
20260502100658 11 352 0.0 0.0 0.00 0.00 0.00 89 1019.7
20260502100210 11 0.0 0.0 0.00 0.00 0.00 88 1020.0
20260502100156 11 351 0.0 0.0 0.00 0.00 0.00 88 1019.7
20260502091212 12 0.0 0.0 0.00 0.00 0.00 84 1019.9
20260502091131 12 339 0.0 0.0 0.00 0.00 0.00 84 1019.5
20260502090627 12 335 0.0 0.0 0.00 0.00 0.00 84 1019.5
20260502090155 12 0.0 0.0 0.00 0.00 0.00 83 1019.9
20260502090125 12 335 0.0 0.0 0.00 0.00 0.00 84 1019.6
20260502071522 13 296 0.0 0.0 0.00 0.00 0.00 80 1019.7
20260502071201 13 318 0.0 1.6 0.00 0.00 0.00 79 1020.0
20260502071020 13 318 0.0 1.6 0.00 0.00 0.00 79 1019.6
20260502070518 13 343 0.0 0.0 0.00 0.00 0.00 79 1019.8
20260502070247 13 323 0.0 1.6 0.00 0.00 0.00 79 1020.1
20260502070016 13 343 0.0 0.0 0.00 0.00 0.00 79 1019.8
20260502065514 13 340 0.0 0.0 0.00 0.00 0.00 79 1019.9
20260502065150 13 320 0.0 1.6 0.00 0.00 0.00 80 1020.2
20260502065012 13 320 0.0 1.6 0.00 0.00 0.00 80 1019.9
20260502064510 13 339 0.0 1.6 0.00 0.00 0.00 81 1019.9
20260502064112 12 0.0 0.0 0.00 0.00 0.00 83 1020.2
20260502064007 13 336 1.6 1.6 0.00 0.00 0.00 83 1019.8
20260502063504 12 341 0.0 0.0 0.00 0.00 0.00 83 1019.9
20260502063138 12 0.0 0.0 0.00 0.00 0.00 88 1020.3
20260502063002 12 340 0.0 0.0 0.00 0.00 0.00 87 1020.1
20260502062458 12 348 0.0 0.0 0.00 0.00 0.00 88 1020.0
20260502062204 12 0.0 0.0 0.00 0.00 0.00 87 1020.0
20260502061957 12 346 0.0 0.0 0.00 0.00 0.00 87 1019.8
20260502061455 12 345 0.0 0.0 0.00 0.00 0.00 87 1019.9
20260502061229 12 0.0 0.0 0.00 0.00 0.00 87 1020.1
20260502060950 12 347 0.0 0.0 0.00 0.00 0.00 87 1019.8
20260502060446 12 350 0.0 0.0 0.00 0.00 0.00 86 1019.9
20260502060152 12 0.0 0.0 0.00 0.00 0.00 85 1020.1
20260502055943 12 0 0.0 0.0 0.00 0.00 0.00 85 1019.7
20260502055440 12 347 0.0 0.0 0.00 0.00 0.00 84 1020.0
20260502055258 13 0.0 0.0 0.00 0.00 0.00 84 1020.1
20260502054935 13 349 0.0 0.0 0.00 0.00 0.00 84 1019.9
20260502054433 13 344 0.0 0.0 0.00 0.00 0.00 83 1020.1
20260502054140 13 0.0 0.0 0.00 0.00 0.00 82 1020.2
20260502053930 13 347 0.0 0.0 0.00 0.00 0.00 83 1020.1
20260502053427 13 347 0.0 0.0 0.00 0.00 0.00 81 1020.1
20260502053103 13 0.0 0.0 0.00 0.00 0.00 81 1020.2
20260502052924 13 345 0.0 0.0 0.00 0.00 0.00 81 1019.9
20260502052422 13 349 0.0 0.0 0.00 0.00 0.00 80 1019.9
20260502052231 13 0.0 0.0 0.00 0.00 0.00 79 1020.1
20260502051920 13 346 0.0 0.0 0.00 0.00 0.00 79 1019.8
20260502051418 14 343 0.0 0.0 0.00 0.00 0.00 79 1019.7
20260502051154 14 0.0 0.0 0.00 0.00 0.00 79 1020.0
20260502050915 14 342 0.0 0.0 0.00 0.00 0.00 79 1019.7
20260502050411 14 331 0.0 0.0 0.00 0.00 0.00 79 1019.8
20260502050219 13 0.0 0.0 0.00 0.00 0.00 81 1020.1
20260502045909 13 344 0.0 0.0 0.00 0.00 0.00 81 1019.8
20260502045405 13 335 0.0 0.0 0.00 0.00 0.00 82 1019.8
20260502045142 13 0.0 0.0 0.00 0.00 0.00 83 1020.1
20260502044902 13 349 0.0 0.0 0.00 0.00 0.00 83 1019.7
20260502044357 14 4 0.0 0.0 0.00 0.00 0.00 81 1019.8
20260502044208 13 0.0 0.0 0.00 0.00 0.00 81 1020.0
20260502043849 13 340 0.0 0.0 0.00 0.00 0.00 81 1019.6
20260502043347 13 327 0.0 0.0 0.00 0.00 0.00 82 1019.5
20260502043131 13 0.0 0.0 0.00 0.00 0.00 82 1019.9
20260502042846 13 350 0.0 0.0 0.00 0.00 0.00 82 1019.6
20260502042344 13 346 0.0 0.0 0.00 0.00 0.00 81 1019.6
20260502042216 14 0.0 0.0 0.00 0.00 0.00 81 1020.0
20260502041841 14 343 0.0 0.0 0.00 0.00 0.00 81 1019.7
20260502041338 14 344 0.0 0.0 0.00 0.00 0.00 81 1019.6
20260502041222 14 0.0 0.0 0.00 0.00 0.00 80 1019.8
20260502040836 14 346 0.0 0.0 0.00 0.00 0.00 80 1019.6
20260502040332 14 350 0.0 0.0 0.00 0.00 0.00 79 1019.4
20260502040247 14 0.0 0.0 0.00 0.00 0.00 79 1020.0
20260502035828 15 0 0.0 0.0 0.00 0.00 0.00 78 1019.7
20260502035325 15 345 0.0 0.0 0.00 0.00 0.00 77 1019.5
20260502035210 15 0.0 0.0 0.00 0.00 0.00 76 1020.0
20260502034823 15 345 0.0 0.0 0.00 0.00 0.00 76 1019.6
20260502034321 15 349 0.0 0.0 0.00 0.00 0.00 75 1019.6
20260502034132 15 0.0 0.0 0.00 0.00 0.00 75 1020.0
20260502033819 15 344 0.0 0.0 0.00 0.00 0.00 75 1019.8
20260502033316 15 351 0.0 0.0 0.00 0.00 0.00 75 1019.5
20260502033158 15 0.0 0.0 0.00 0.00 0.00 73 1019.9
20260502032813 15 339 0.0 0.0 0.00 0.00 0.00 73 1019.6
20260502032309 15 337 0.0 0.0 0.00 0.00 0.00 72 1019.4
20260502032224 15 0.0 0.0 0.00 0.00 0.00 73 1019.8
20260502031807 15 346 0.0 0.0 0.00 0.00 0.00 73 1019.6
20260502031305 15 357 0.0 0.0 0.00 0.00 0.00 72 1019.7
20260502031146 16 0.0 0.0 0.00 0.00 0.00 72 1019.9
20260502030803 16 326 0.0 0.0 0.00 0.00 0.00 72 1019.6
20260502030301 16 343 0.0 0.0 0.00 0.00 0.00 73 1019.6
20260502030210 16 0.0 0.0 0.00 0.00 0.00 71 1019.5
20260502025758 16 0 0.0 0.0 0.00 0.00 0.00 71 1019.2
20260502025256 16 351 0.0 0.0 0.00 0.00 0.00 71 1019.2
20260502025133 16 0.0 0.0 0.00 0.00 0.00 71 1019.5
20260502024753 16 348 0.0 0.0 0.00 0.00 0.00 71 1019.5
20260502024251 16 352 0.0 0.0 0.00 0.00 0.00 71 1019.6
20260502024159 16 0.0 0.0 0.00 0.00 0.00 69 1019.7
20260502023749 16 338 0.0 0.0 0.00 0.00 0.00 69 1019.3
20260502023246 16 339 0.0 0.0 0.00 0.00 0.00 67 1019.4
20260502023242 16 0.0 0.0 0.00 0.00 0.00 68 1019.7
20260502022744 16 337 0.0 0.0 0.00 0.00 0.00 69 1019.4
20260502022250 16 0.0 0.0 0.00 0.00 0.00 68 1019.6
20260502022239 16 347 0.0 0.0 0.00 0.00 0.00 68 1019.3
20260502021737 16 344 0.0 0.0 0.00 0.00 0.00 68 1019.3
20260502021234 16 347 0.0 0.0 0.00 0.00 0.00 68 1019.1
20260502021212 16 0.0 0.0 0.00 0.00 0.00 68 1019.4
20260502020731 16 344 0.0 0.0 0.00 0.00 0.00 68 1019.0
20260502020238 16 0.0 0.0 0.00 0.00 0.00 67 1019.0
20260502020228 16 340 0.0 0.0 0.00 0.00 0.00 66 1018.9
20260502015726 16 330 0.0 0.0 0.00 0.00 0.00 67 1018.8
20260502015222 16 345 0.0 0.0 0.00 0.00 0.00 66 1018.6
20260502015200 16 0.0 0.0 0.00 0.00 0.00 66 1019.0
20260502014720 16 358 0.0 0.0 0.00 0.00 0.00 66 1018.7
20260502014217 16 322 0.0 1.6 0.00 0.00 0.00 67 1018.4
20260502014122 16 0.0 0.0 0.00 0.00 0.00 66 1018.6
20260502013713 16 352 0.0 0.0 0.00 0.00 0.00 66 1018.3
20260502013208 16 24 0.0 0.0 0.00 0.00 0.00 66 1018.2
20260502013148 17 2 0.0 1.6 0.00 0.00 0.00 66 1018.3
20260502012705 17 352 0.0 0.0 0.00 0.00 0.00 66 1018.0
20260502012214 17 13 0.0 1.6 0.00 0.00 0.00 65 1018.3
20260502012204 17 359 0.0 0.0 0.00 0.00 0.00 65 1017.9
20260502011700 17 357 0.0 0.0 0.00 0.00 0.00 65 1018.1
20260502011239 17 0.0 0.0 0.00 0.00 0.00 65 1018.1
20260502011156 17 16 0.0 0.0 0.00 0.00 0.00 65 1018.0
20260502010654 17 352 0.0 0.0 0.00 0.00 0.00 65 1017.9
20260502010201 17 0.0 0.0 0.00 0.00 0.00 64 1018.0
20260502010149 17 347 0.0 0.0 0.00 0.00 0.00 65 1017.7
20260502005647 17 357 0.0 0.0 0.00 0.00 0.00 64 1017.7
20260502005248 17 0.0 0.0 0.00 0.00 0.00 63 1017.9
20260502005145 17 354 0.0 0.0 0.00 0.00 0.00 64 1017.5
20260502004641 17 340 0.0 0.0 0.00 0.00 0.00 63 1017.6
20260502004150 17 0.0 0.0 0.00 0.00 0.00 62 1017.8
20260502004137 17 346 0.0 0.0 0.00 0.00 0.00 62 1017.7
20260502003635 17 356 0.0 0.0 0.00 0.00 0.00 62 1017.4
20260502003132 17 6 0.0 0.0 0.00 0.00 0.00 62 1017.6
20260502003113 17 0.0 0.0 0.00 0.00 0.00 62 1017.5
20260502002628 17 357 0.0 0.0 0.00 0.00 0.00 62 1017.1
20260502002241 17 0.0 0.0 0.00 0.00 0.00 61 1017.5
20260502002126 17 354 0.0 0.0 0.00 0.00 0.00 61 1017.3
20260502001623 17 356 0.0 0.0 0.00 0.00 0.00 61 1017.1
20260502001203 17 0.0 0.0 0.00 0.00 0.00 62 1017.2
20260502001121 17 7 0.0 0.0 0.00 0.00 0.00 62 1017.1
20260502000619 17 353 0.0 0.0 0.00 0.00 0.00 61 1017.0
20260502000228 17 9 0.0 1.6 0.00 0.00 0.00 62 1017.1
20260502000116 17 352 0.0 0.0 0.00 0.00 0.00 62 1016.8
20260501235612 17 14 0.0 1.6 0.00 0.00 0.00 62 1016.7
20260501235151 18 0.0 0.0 0.00 0.00 0.00 61 1017.1
20260501235108 18 10 0.0 0.0 0.00 0.00 0.00 61 1016.8
20260501234603 18 351 0.0 0.0 0.00 0.00 0.00 61 1016.7
20260501234237 18 0.0 0.0 0.00 0.00 0.00 60 1016.9
20260501234101 18 346 0.0 0.0 0.00 0.00 0.00 61 1016.5
20260501233559 18 351 0.0 0.0 0.00 0.00 0.00 59 1016.5
20260501233139 18 356 0.0 1.6 0.00 0.00 0.00 59 1016.9
20260501233056 18 2 0.0 0.0 0.00 0.00 0.00 60 1016.5
20260501232552 18 29 0.0 0.0 0.00 0.00 0.00 60 1016.6
20260501232204 18 5 0.0 1.6 0.00 0.00 0.00 59 1016.6
20260501232049 18 346 0.0 0.0 0.00 0.00 0.00 59 1016.3
20260501231547 18 346 0.0 0.0 0.00 0.00 0.00 59 1016.3
20260501231229 18 25 0.0 1.6 0.00 0.00 0.00 58 1016.6
20260501231045 18 344 0.0 0.0 0.00 0.00 0.00 59 1016.3
20260501230543 18 40 0.0 1.6 0.00 0.00 0.00 59 1016.3
20260501230152 18 359 1.6 4.8 0.00 0.00 0.00 58 1016.5
20260501230041 18 3 3.2 4.8 0.00 0.00 0.00 58 1016.3
20260501225538 18 5 0.0 0.0 0.00 0.00 0.00 58 1016.3
20260501225237 18 6 1.6 4.8 0.00 0.00 0.00 57 1016.7
20260501225034 18 341 3.2 4.8 0.00 0.00 0.00 57 1016.2
20260501224532 18 43 3.2 3.2 0.00 0.00 0.00 57 1016.3
20260501224140 18 18 0.0 1.6 0.00 0.00 0.00 57 1016.5
20260501224029 18 13 0.0 1.6 0.00 0.00 0.00 57 1016.2
20260501223526 18 0 0.0 0.0 0.00 0.00 0.00 57 1016.1
20260501223226 18 16 0.0 1.6 0.00 0.00 0.00 57 1016.5
20260501223022 18 319 0.0 1.6 0.00 0.00 0.00 57 1016.3
20260501222518 18 28 3.2 3.2 0.00 0.00 0.00 57 1016.4
20260501222220 18 49 1.6 3.2 0.00 0.00 0.00 57 1016.5
20260501222015 18 54 1.6 1.6 0.00 0.00 0.00 57 1016.1
20260501221511 18 54 0.0 1.6 0.00 0.00 0.00 56 1016.2
20260501221246 18 95 0.0 1.6 0.00 0.00 0.00 56 1016.4
20260501221009 18 355 0.0 1.6 0.00 0.00 0.00 56 1016.1
20260501220507 18 110 1.6 1.6 0.00 0.00 0.00 56 1016.2
20260501220209 18 38 1.6 3.2 0.00 0.00 0.00 56 1016.6
20260501220003 18 23 1.6 1.6 0.00 0.00 0.00 57 1016.2
20260501215500 18 32 3.2 4.8 0.00 0.00 0.00 57 1016.2
20260501215151 18 43 3.2 6.4 0.00 0.00 0.00 56 1016.5
20260501214955 18 346 1.6 3.2 0.00 0.00 0.00 57 1016.0
20260501214450 18 345 0.0 1.6 0.00 0.00 0.00 57 1016.4
20260501214157 18 46 3.2 4.8 0.00 0.00 0.00 56 1016.4
20260501213946 18 53 1.6 1.6 0.00 0.00 0.00 57 1016.3
20260501213444 18 16 1.6 1.6 0.00 0.00 0.00 56 1016.3
20260501213119 18 5 3.2 6.4 0.00 0.00 0.00 57 1016.5
20260501212938 18 18 1.6 3.2 0.00 0.00 0.00 57 1016.2
20260501212436 18 70 1.6 3.2 0.00 0.00 0.00 56 1016.1
20260501212248 18 354 3.2 6.4 0.00 0.00 0.00 56 1016.5
20260501211933 18 84 3.2 4.8 0.00 0.00 0.00 56 1016.2
20260501211430 18 52 1.6 3.2 0.00 0.00 0.00 55 1016.4
20260501211210 18 55 1.6 9.7 0.00 0.00 0.00 56 1016.9
20260501210927 18 42 0.0 0.0 0.00 0.00 0.00 57 1016.5
20260501210424 18 49 0.0 1.6 0.00 0.00 0.00 56 1016.6
20260501210236 18 341 3.2 6.4 0.00 0.00 0.00 56 1017.0
20260501205921 18 290 1.6 3.2 0.00 0.00 0.00 56 1016.6
20260501205418 18 209 1.6 3.2 0.00 0.00 0.00 54 1016.8
20260501205159 18 4 1.6 3.2 0.00 0.00 0.00 55 1017.0
20260501204915 18 84 0.0 1.6 0.00 0.00 0.00 55 1016.9
20260501204411 18 3 1.6 3.2 0.00 0.00 0.00 55 1017.0
20260501204225 18 59 4.8 12.9 0.00 0.00 0.00 55 1017.4
20260501203907 18 2 0.0 0.0 0.00 0.00 0.00 55 1017.3
20260501203404 18 5 0.0 1.6 0.00 0.00 0.00 55 1017.2
20260501203147 17 59 3.2 6.4 0.00 0.00 0.00 55 1017.8
20260501202902 17 21 0.0 1.6 0.00 0.00 0.00 55 1017.4
20260501202358 18 8 3.2 4.8 0.00 0.00 0.00 55 1017.4
20260501202110 18 6 3.2 4.8 0.00 0.00 0.00 55 1017.5
20260501201855 18 344 1.6 4.8 0.00 0.00 0.00 55 1017.1
20260501201352 18 29 0.0 1.6 0.00 0.00 0.00 55 1017.4
20260501201238 18 9 3.2 6.4 0.00 0.00 0.00 54 1017.5
20260501200848 18 32 1.6 1.6 0.00 0.00 0.00 55 1017.1
20260501200345 18 55 8.0 11.3 0.00 0.00 0.00 53 1017.1
20260501200221 18 86 4.8 14.5 0.00 0.00 0.00 53 1017.1
20260501195844 18 29 1.6 1.6 0.00 0.00 0.00 53 1016.9
20260501195339 18 63 3.2 4.8 0.00 0.00 0.00 54 1016.8
20260501195225 17 69 4.8 9.7 0.00 0.00 0.00 53 1017.2
20260501194835 17 30 4.8 4.8 0.00 0.00 0.00 53 1016.8
20260501194331 18 321 1.6 3.2 0.00 0.00 0.00 54 1016.6
20260501194147 18 49 3.2 9.7 0.00 0.00 0.00 53 1017.2
20260501193828 18 351 1.6 3.2 0.00 0.00 0.00 53 1017.1
20260501193326 18 90 1.6 1.6 0.00 0.00 0.00 53 1016.8
20260501193213 18 38 4.8 9.7 0.00 0.00 0.00 53 1017.0
20260501192824 18 83 3.2 4.8 0.00 0.00 0.00 54 1016.8
20260501192321 18 59 4.8 6.4 0.00 0.00 0.00 54 1016.4
20260501192136 18 54 4.8 9.7 0.00 0.00 0.00 53 1016.7
20260501191817 18 24 1.6 1.6 0.00 0.00 0.00 54 1016.2
20260501191315 18 66 8.0 9.7 0.00 0.00 0.00 55 1016.9
20260501191242 17 359 3.2 11.3 0.00 0.00 0.00 57 1017.1